Location: Newark
(41.6478°N, 9.0078°E)
Time: 18:43:36
(UTC+00:00)

UWE-3 - Pass Details

Date: 26 January 2020
Orbit: 585 x 683 km, 97.6° (Epoch: 17 February)

Event Time Altitude Azimuth Distance (km) Brightness Sun altitude
Rises 03:51:42 0° 31° (NNE) 2,880 ? -31.8°
Reaches altitude 10° 03:54:38 10° 53° (NE) 1,988 ? -31.2°
Maximum altitude 03:57:19 16° 92° (E) 1,638 ? -30.7°
Drops below altitude 10° 04:00:02 10° 131° (SE) 2,016 ? -30.2°
Sets 04:03:02 0° 152° (SSE) 2,940 ? -29.7°
